Location: Gerlach
(40.6516°N, 119.3568°W)
Time: 04:49:25
(UTC-07:00)

Transit 2A - Visible Passes

Search period start: 05 October 2024 00:00
Search period end: 15 October 2024 00:00
Orbit: 590 x 960 km, 66.7° (Epoch: 05 October)

Date Brightness Start Highest point End Pass type
(mag) Time Alt. Az. Time Alt. Az. Time Alt. Az.
05 Oct 8.6 21:25:34 10° N 21:27:02 13° NNE 21:27:02 13° NNE visible
05 Oct 9.2 23:07:16 10° NNW 23:07:25 11° NNW 23:07:25 11° NNW visible
06 Oct 8.6 20:51:12 10° NNE 20:52:24 11° NNE 20:52:24 11° NNE visible
06 Oct 8.9 22:31:53 10° NNW 22:32:47 14° NNW 22:32:47 14° NNW visible
07 Oct 8.5 21:56:36 10° NNW 21:58:11 17° N 21:58:11 17° N visible
08 Oct 8.3 21:21:24 10° N 21:23:36 18° N 21:23:36 18° N visible
09 Oct 8.2 20:46:19 10° N 20:49:03 17° NNE 20:49:03 17° NNE visible
09 Oct 8.8 22:28:29 10° NNW 22:29:27 15° NNW 22:29:27 15° NNW visible
10 Oct 8.2 20:11:27 10° N 20:14:26 14° NE 20:14:31 14° NE visible
10 Oct 8.4 21:53:01 10° NNW 21:54:55 20° NNW 21:54:55 20° NNW visible
11 Oct 8.3 19:37:20 10° NNE 19:38:25 10° NNE 19:39:29 10° NE visible
11 Oct 7.9 21:17:38 10° NNW 21:20:25 25° N 21:20:25 25° N visible
12 Oct 7.6 20:42:21 10° NNW 20:45:58 26° NNE 20:45:58 26° NNE visible
12 Oct 8.9 22:25:24 10° NW 22:26:22 15° NW 22:26:22 15° NW visible
13 Oct 7.6 20:07:09 10° N 20:11:33 23° NE 20:11:33 23° NE visible
13 Oct 8.2 21:49:42 10° NW 21:51:57 23° NW 21:51:57 23° NW visible
14 Oct 7.8 19:32:04 10° N 19:35:57 17° NE 19:37:11 16° NE visible
14 Oct 7.5 21:14:09 10° NNW 21:17:35 35° NNW 21:17:35 35° NNW visible
